{"data":{"norad_id":67974,"intl_designator":"2026-038P","name":"STARLINK-36901","alt_names":[],"object_type":"PAYLOAD","status":"ACTIVE","operator":null,"country":"US","launch_date":"2026-02-25","launch_site_code":"AFWTR","launch_vehicle":null,"mission":null,"orbit_class":"UNKNOWN","rcs_meters":null,"size_class":null,"mass_kg":null,"dimensions":null,"purposes":["comms"],"wikipedia_slug":null,"has_3d_model":false,"image_url":null,"decayed_at":null,"tle_current":{"epoch":"2026-09-19T23:24:55.442016Z","epoch_age_seconds":104877,"freshness":"FRESH","line1":"1 67974U 26038P   26262.97564169  .00014577  00000+0  45292-3 0  9995","line2":"2 67974  97.2848 271.3327 0001790  98.7026 261.4420 15.33449010 33013","mean_motion":15.3344901,"eccentricity":0.000179,"inclination_deg":97.2848,"raan_deg":271.3327,"arg_perigee_deg":98.7026,"mean_anomaly_deg":261.442,"bstar":0.00045292,"rev_number":3301,"period_min":93.905959090221,"perigee_km":464.30622694981,"apogee_km":466.756260181,"semimajor_km":6843.6682435654,"source":"CELESTRAK","updated_at":"2026-09-20T09:00:43.731880Z"}}}